Location: Bidart
(43.4376°N, 1.5913°W)
Time: 00:22:22
(UTC+00:00)

BlueWalker 3 - Pass Details

Date: 19 May 2025
Orbit: 460 x 472 km, 53.2° (Epoch: 18 June)

Event Time Altitude Azimuth Distance (km) Brightness Sun altitude
Rises 21:03:36 0° 308° (NW) 2,494 7.3 -14.4°
Reaches altitude 10° 21:05:53 10° 317° (NW) 1,618 5.9 -14.7°
Maximum altitude 21:09:16 35° 25° (NNE) 764 3.0 -15.1°
Enters shadow 21:11:33 17° 84° (E) 1,232 3.6 -15.4°
